This is the latest recevied weather packets stored in our database for station/object N1ORT. If no packets are shown the sender has not sent any weather packets the latest 10 day(s).
| Time | Temp. | Humidity | Pressure | Rain* | Wind** | Luminosity | Snow |
|---|---|---|---|---|---|---|---|
| 1788433129 | 16.11° C | 99% | 1014.3 hPa | 1.78 mm | - | 10 W/m² | - |
| 1788432824 | 16.11° C | 99% | 1014.1 hPa | 0.51 mm | - | 7 W/m² | - |
| 1788432518 | 16.11° C | 99% | 1014.1 hPa | 0 mm | - | 7 W/m² | - |
| 1788432213 | 16.11° C | 99% | 1014.2 hPa | 0.51 mm | - | 3 W/m² | - |
| 1788431910 | 16.11° C | 99% | 1014.1 hPa | 0.51 mm | - | 4 W/m² | - |
| 1788431606 | 16.11° C | 99% | 1014.1 hPa | 0.51 mm | - | 3 W/m² | - |
| 1788431301 | 16.11° C | 99% | 1014.2 hPa | 0.51 mm | - | 3 W/m² | - |
| 1788430996 | 16.11° C | 99% | 1014.2 hPa | 0 mm | - | 2 W/m² | - |
| 1788430695 | 16.11° C | 99% | 1014.2 hPa | 0 mm | - | 1 W/m² | - |
| 1788430390 | 16.11° C | 99% | 1014 hPa | 1.27 mm | - | 1 W/m² | - |
| 1788430086 | 16.11° C | 99% | 1014 hPa | 1.27 mm | - | 1 W/m² | - |
| 1788429780 | 16.11° C | 99% | 1014.3 hPa | 1.78 mm | - | 0 W/m² | - |
| 1788429477 | 16.11° C | 99% | 1014.3 hPa | 1.78 mm | - | 0 W/m² | - |
| 1788429172 | 16.11° C | 99% | 1014.5 hPa | 0.51 mm | - | 0 W/m² | - |
| 1788428867 | 16.11° C | 99% | 1014.3 hPa | 0 mm | - | 0 W/m² | - |
| 1788428562 | 16.11° C | 99% | 1014.2 hPa | 0 mm | - | 0 W/m² | - |
| 1788428257 | 16.11° C | 99% | 1014.5 hPa | 1.27 mm | - | 0 W/m² | - |
| 1788427953 | 16.11° C | 99% | 1014.4 hPa | 0.51 mm | - | 0 W/m² | - |
| 1788427652 | 16.11° C | 99% | 1014.4 hPa | 1.27 mm | - | 0 W/m² | - |
| 1788427347 | 16.11° C | 99% | 1014.5 hPa | 1.27 mm | - | 0 W/m² | - |
| 1788427045 | 16.11° C | 99% | 1014.7 hPa | 1.78 mm | - | 0 W/m² | - |
| 1788426735 | 16.11° C | 99% | 1014.7 hPa | 1.78 mm | - | 0 W/m² | - |
| 1788426430 | 16.11° C | 99% | 1015 hPa | 0.51 mm | - | 0 W/m² | - |
| 1788426129 | 16.11° C | 99% | 1014.7 hPa | 0 mm | - | 0 W/m² | - |
| 1788425828 | 16.67° C | 99% | 1014.8 hPa | 0 mm | - | 0 W/m² | - |
* Rain latest hour (hover to see other rain measurements)
** Current wind speed in m/s (hover to see current wind gust speed)